Cloud_Cover
6 5 5 5 5 13 78 18 76 6 4 4 12 80 52 73 98 88 99 91 86 39 49 50 49 0 24 0 12 64 55 76 45 0 0 17 40 0 18 1 64 93 100
100 84 39 87 42 46 100 95 100 80 63 80 100 81 87 100 40 36 49 39 18 4 4 14 0 1 1 0 0 4 62 91 99 100 0 0 24 22 71 78 23 96 100
86 100 83 99 100 100 100 100 91 100 100 100 100 100 100 100 47 6 5 2 0 0 0 0 0 1 2 5 5 0 3 34 98 100 64 0 17 99 92 75 100 100 100
83 87 95 100 100 100 100 100 100 100 96 85 15 73 73 33 12 95 4 4 0 0 0 0 0 0 0 0 1 4 4 0 11 58 100 84 7 7 46 83 98 100 100
96 100 93 100 100 100 100 100 100 100 100 89 52 97 90 95 92 6 13 46 56 35 4 0 0 0 0 2 8 0 3 17 0 36 87 100 100 51 62 52 80 100 100
39 100 100 100 100 100 100 100 99 99 96 99 100 100 100 100 98 77 96 96 100 100 100 39 23 17 12 14 0 0 0 0 0 0 13 66 100 100 24 80 78 100 100
100 100 100 100 100 100 100 100 100 100 100 100 100 100 96 95 60 42 81 46 74 100 100 100 100 74 30 40 75 88 55 8 25 0 19 56 72 100 100 97 100 100 100
100 100 100 100 100 100 100 100 100 100 100 100 100 100 100 100 62 66 89 42 55 91 91 100 85 92 91 100 86 63 40 36 17 14 100 71 99 100 96 100 100 100 100
100 100 100 100 100 100 100 100 100 100 100 100 100 100 72 100 10 16 33 57 83 98 97 100 100 76 79 68 100 100 91 27 29 21 100 100 100 100 100 100 100 100 100
100 100 100 100 100 100 100 100 100 100 88 70 97 40 75 63 54 0 37 62 100 100 89 96 69 80 41 100 100 100 100 100 100 100 100 100 59 50 100 100 100 100 100
100 100 100 100 100 100 100 100 99 100 99 78 27 76 81 29 15 0 10 28 62 98 100 86 92 86 79 100 97 100 100 100 100 100 100 96 100 100 100 100 100 100 100
100 94 100 100 100 100 100 70 8 4 6 5 10 4 3 6 0 0 0 10 11 79 99 100 100 100 99 99 68 96 100 100 100 100 100 100 100 100 100 100 100 100 100
92 100 99 58 26 1 0 0 0 0 0 0 0 0 1 12 13 0 0 0 1 52 67 100 98 100 100 100 100 100 100 100 100 100 100 100 100 100 100 100 100 100 100
48 31 44 5 2 0 0 0 0 0 0 0 0 0 4 13 0 0 9 50 48 11 49 100 100 100 100 100 100 100 100 100 100 100 100 100 100 100 100 100 100 100 100
38 9 2 0 1 3 5 4 3 0 18 0 0 0 4 1 5 37 47 3 1 10 12 100 83 100 100 100 100 100 100 100 100 100 100 100 100 100 100 100 100 100 100
4 4 5 5 5 5 5 5 18 21 1 4 71 52 0 2 10 2 9 24 77 24 64 25 100 100 100 100 100 100 100 100 100 100 100 100 100 100 100 100 100 100 100
5 5 5 5 5 5 5 3 5 31 1 0 0 0 22 84 49 90 100 100 100 96 5 46 95 100 100 100 100 100 100 100 100 100 100 100 100 100 100 100 100 100 100
5 6 91 36 5 10 19 4 0 0 0 6 40 25 0 4 0 1 5 98 74 60 6 20 35 57 82 100 100 100 100 100 100 100 100 100 100 100 100 100 100 100 100
9 10 5 15 5 2 0 0 0 0 0 0 2 31 0 2 14 95 63 72 5 63 29 17 11 36 54 63 80 81 100 99 100 100 100 100 100 100 100 100 100 100 100
5 6 1 0 0 0 0 0 0 0 0 0 30 33 32 7 100 100 100 65 95 12 47 95 8 5 15 21 13 96 84 98 98 100 100 100 100 100 100 100 100 100 100
0 0 0 0 2 5 30 17 0 1 26 16 34 4 83 5 59 99 99 99 45 74 65 20 94 55 100 12 17 55 58 50 87 100 100 100 100 100 100 100 100 100 100
0 0 0 0 10 41 37 41 5 8 14 41 65 69 4 10 100 100 93 100 90 65 86 53 27 78 99 9 72 98 82 34 98 100 100 100 100 100 100 100 100 100 100
9 40 38 45 55 63 9 16 80 52 53 46 86 100 100 100 100 100 100 100 64 98 81 90 79 8 30 95 90 98 100 81 100 87 100 100 100 100 100 100 100 100 100
43 75 100 100 100 32 40 67 89 53 36 78 100 100 100 100 100 100 83 98 100 85 41 17 26 2 23 51 100 100 100 100 100 100 100 100 100 100 100 100 100 100 100
1 43 40 98 83 29 48 100 96 100 93 93 71 88 100 100 88 43 100 97 96 63 39 0 0 0 9 14 100 100 100 100 100 100 100 100 100 100 100 100 100 100 100
9 10 22 100 87 40 87 100 99 97 92 100 100 99 100 100 99 93 94 94 87 74 18 73 43 2 5 20 14 100 100 100 100 100 100 100 100 100 100 100 100 100 100